Back to catalog

STARLINK-30824

AliveCommunicationsVLEO
NORAD 58176·PAYLOAD·🇺🇸 United States

Launched Oct 30, 2023 from Cape Canaveral Space Force Station

Loading…

Next Passes (next 24 hours)

TLE

FreshSource: CelesTrak SupGP

Epoch: Sep 14, 2026, 21:21 UTC

1 58176C 23167B   26257.89006944 -.00043455  00000+0 -15741-2 0  2577
2 58176  43.0007 155.0612 0001270 268.7486 285.9840 15.27597089    14

Track STARLINK-30824 in real time with AllMySat

Download on the App Store